Regional Weather Roundup
Issued by NWS

Home | Current Version | Previous Version | Graphics & Text | Print | Product List | Glossary On
Versions: 1 2 3 4 5 6 7 8 9 10 11 12 13 14 15 16 17 18 19 20 21 22 23 24 25 26 27 28 29 30 31 32 33 34 35 36 37 38 39 40 41 42 43 44 45 46 47 48 49 50
000
ASUS43 KIND 210109
RWRIN

WEATHER ROUNDUP FOR INDIANA
NATIONAL WEATHER SERVICE INDIANAPOLIS IN
900 PM EDT SUN AUG 20 2017

NOTE: "FAIR" INDICATES FEW OR NO CLOUDS BELOW 12,000 FEET WITH NO
SIGNIFICANT WEATHER AND/OR OBSTRUCTIONS TO VISIBILITY.

* - STATION DOES NOT REPORT WEATHER SUCH AS PRECIPITATION OR FOG.

+ - STATION NOT QUALITY CONTROLLED BY THE NATIONAL WEATHER SERVICE.
    USE DATA WITH CAUTION...ESPECIALLY DEWPOINT AND RELATIVE
    HUMIDITY OBSERVATIONS.

INZ001>003-010>013-019-020-210200-
NORTHWEST INDIANA

CITY           SKY/WX    TMP DP  RH WIND       PRES   REMARKS
GARY /AIRPORT/ CLOUDY    81  68  65 SE3       30.02F
KNOX *+        CLOUDY    75  70  83 SE3       30.05R
LA PORTE +     CLOUDY    77  69  77 CALM      30.06R
MICHIGAN CITY+ CLOUDY    77  68  73 CALM      30.05S
MONTICELLO +   PTCLDY    79  68  68 CALM      30.04R
RENSSELAER +   CLOUDY    77  66  69 CALM      30.06R
VALPARAISO     CLOUDY    79  70  74 SE5       30.05R

$$

LMZ046-743>745-210200-
SOUTHERN LAKE MICHIGAN

STATION/POSITION TIME  TEMP    WIND        PRES    WAVE
                       AIR SEA DIR/SP/G            HT
                 (UTC) (F)     (DEG/KT/KT) (MB)    (FT)
BURNS HARBOR     0040   82     180/  6/ 10 1017.3R
MICHIGAN CITY    0040   81     160/  5/  7   N/A
5NW MICH CITY    0100   78 76  160/  6/  6   N/A     1

$$

INZ004-005-014>016-021>024-210200-
NORTH CENTRAL INDIANA

CITY           SKY/WX    TMP DP  RH WIND       PRES   REMARKS
GOSHEN         CLOUDY    75  66  73 SE5       30.06S
LOGANSPORT +   CLOUDY    73  68  83 CALM      30.07R
PERU/GRISSOM   MOCLDY    78  67  70 E3        30.05S
ROCHESTER +    MOCLDY   N/A N/A N/A CALM      30.07R
SOUTH BEND     CLOUDY    79  67  66 S5        30.06R
WARSAW +       CLOUDY    73  68  83 SE3       30.07S

$$

INZ006>009-017-018-025>027-210200-
NORTHEAST INDIANA

CITY           SKY/WX    TMP DP  RH WIND       PRES   REMARKS
AUBURN +       CLOUDY    73  68  83 CALM      30.08S
FORT WAYNE     MOCLDY    76  65  68 SE3       30.07S
HUNTINGTON +   PTCLDY    74  69  83 CALM      30.07S

$$

INZ028-029-035-036-043>045-051>053-210200-
WEST CENTRAL INDIANA

CITY           SKY/WX    TMP DP  RH WIND       PRES   REMARKS
GREENCASTLE +  CLEAR     73  68  83 CALM      30.05F
LAFAYETTE      MOCLDY    78  68  71 CALM      30.03R
TERRE HAUTE    CLEAR     78  70  76 CALM      30.03S

$$

INZ030>032-037>040-046>048-054>057-064-065-210200-
CENTRAL INDIANA

CITY           SKY/WX    TMP DP  RH WIND       PRES   REMARKS
CP ATTERBURY + MOCLDY    75  70  83 CALM      30.06F
COLUMBUS       CLEAR     81  66  61 CALM      30.05F
FRANKFORT +    MOCLDY    77  72  84 SE3       30.07S
GREENWOOD *+   PTCLDY   N/A N/A N/A SE5       30.06F
INDIANAPOLIS   PTCLDY    82  66  58 SE7       30.04F
-EAGLE CREEK   CLEAR     83  66  56 S3        30.05R
KOKOMO +       CLOUDY    78  69  73 E5        30.07S
MARION +       MOCLDY    73  64  73 CALM      30.07F
MT COMFORT *+  PTCLDY    77  70  78 SE5       30.07S
SHELBYVILLE    CLEAR     76  68  76 SE6       30.05F
ZIONSVILLE +   PTCLDY    75  69  82 CALM      30.07R

$$

INZ033-034-041-042-049-050-058-059-210200-
EAST CENTRAL INDIANA

CITY           SKY/WX    TMP DP  RH WIND       PRES   REMARKS
MUNCIE         CLOUDY    76  70  82 E5        30.08S
RICHMOND +     PTCLDY    70  68  94 CALM      30.11S

$$

INZ060-061-067>069-081>083-085>088-210200-
SOUTHWEST INDIANA

CITY           SKY/WX    TMP DP  RH WIND       PRES   REMARKS
EVANSVILLE     CLEAR     84  69  60 CALM      30.04R
HUNTINGBURG +  CLOUDY    81  73  76 SE3       30.05R
WASHINGTON +   PTCLDY    78  67  69 MISG      30.03F

$$

INZ062-063-066-070>080-084-089>092-210200-
SOUTH CENTRAL AND SOUTHEAST INDIANA

CITY           SKY/WX    TMP DP  RH WIND       PRES   REMARKS
BLOOMINGTON    PTCLDY    78  66  66 SE3       30.05F
MADISON *+     CLOUDY    77  72  83 CALM      30.09S
NORTH VERNON + CLOUDY    75  72  88 CALM      30.07F

$$





USA.gov is the U.S. government's official web portal to all federal, state and local government web resources and services.